Regional Weather Roundup
Issued by NWS Newport/Morehead, NC

Current Version | Previous Version | Graphics & Text | Print | Product List | Glossary Off
Versions: 1 2 3 4 5 6 7 8 9 10 11 12 13 14 15 16 17 18 19 20 21 22 23 24 25 26 27 28 29 30 31 32 33 34 35 36 37 38 39 40 41 42 43 44 45 46 47 48 49 50
000 ASUS42 KMHX 031913 RWRMHX WEATHER ROUNDUP FOR EASTERN NORTH CAROLINA NATIONAL WEATHER SERVICE NEWPORT/MOREHEAD CITY NC 300 PM EDT MON AUG 03 2015 NOTE: "FAIR" INDICATES FEW OR NO CLOUDS BELOW 12,000 FEET WITH NO SIGNIFICANT WEATHER AND/OR OBSTRUCTIONS TO VISIBILITY NCZ015>017-031-032-045>047-102-103-032000- NORTH COAST CITY SKY/WX TMP DP RH WIND PRES REMARKS EDENTON N/A 88 73 60 S9 29.93S ELIZABETH CITY MOSUNNY 86 74 67 S10 29.93S KITTY HAWK MOCLDY 84 72 67 SW9 29.94F MANTEO CLOUDY 81 73 76 SW15 29.96S $$ NCZ045>047-081-094-103-104-032000- CENTRAL COAST CITY SKY/WX TMP DP RH WIND PRES REMARKS FRISCO RAIN 73 71 93 SW16G23 30.00S SWANQUARTER N/A 77 N/A N/A S24 29.94S $$ NCZ095-097-098-100-101-032000- SOUTHERN COAST CITY SKY/WX TMP DP RH WIND PRES REMARKS BEAUFORT LGT RAIN 74 72 93 SW15G30 29.98F CEDAR ISLAND N/A 72 N/A N/A S8G17 30.03S JACKSONVILLE CLOUDY 76 70 82 S12G21 29.96S PINEY ISLAND LGT RAIN N/A N/A N/A S8 29.98S WILMINGTON TSTM 74 72 93 W14 29.99R VSB 1 $$ NCZ011>013-027>030-043-044-078>080-089-090>093-098-032000- COASTAL PLAIN CITY SKY/WX TMP DP RH WIND PRES REMARKS AHOSKIE SUNNY 89 69 50 S9 29.90S CLINTON PTSUNNY 89 74 61 S7 29.92S ELIZABETHTOWN CLOUDY 85 73 68 S7 29.94F GOLDSBORO MOSUNNY 92 70 47 SW5 29.89F GREENVILLE MOSUNNY 91 70 49 W7 29.94S HAVELOCK CLOUDY 76 73 91 S12 29.98S KENANSVILLE MOSUNNY N/A N/A N/A S3 29.94F KINSTON MOSUNNY 88 73 62 S9 29.93S NEW BERN CLOUDY 82 73 74 S12G21 29.97F RICHLANDS PTSUNNY 84 72 65 S13 29.95F ROCKY MOUNT SUNNY 95 64 35 VRB3 29.91S WASHINGTON MOSUNNY 87 73 64 SE12 29.93S WHITEVILLE CLOUDY 82 75 78 S6 29.95S $$ AMZ130-135-150-152-154-156-158-170-250-252-270-ANZ085-086-088-633-658-670-032000- MARINE OBSERVATIONS STATION/POSITION TIME TEMP WIND PRES WAVE SWELL AIR SEA DIR/SP/G HT/PER HT/PER (UTC) (F) (DEG/KT/KT) (MB) (FT/S) (FT/S) CHESAPEAKE LIGHT 1900 81 180/ 22/ 25 1012.7 64 E VA BEACH 1850 80 81 210/ 17/ 21 1013.5 4/ 5 2/11 DUCK 1800 80 65 190/ 12/ 17 1012.8 2 E DUCK 1811 79 N/A 2/13 2/13 OREGON INLET 1800 77 82 200/ 22/ 25 1014.4 13E OREGON INLT 1900 80 N/A 4/ 4 2/11 HATTERAS CG 1800 74 80 220/ 10/ 14 1015.5 DIAMOND BUOY 1850 76 83 190/ 12/ 14 1016.2 3/ 7 3/ 7 CAPE LOOKOUT 1900 74 220/ 7/ 9 1015.4 BEAUFORT LAB 1800 72 81 210/ 11/ 15 1015.1 30 SE NEW RVR IN NOT AVBL 27 SE WRIGHTSVLE 1800 77 82 230/ 14/ 19 N/A 5 SE WRIGHTSVLE NOT AVBL 225 S CAPE HAT 1850 83 81 200/ 14/ 17 1017.3 5/ 6 2/11 41 SE CHARLESTON 1850 84 83 190/ 12/ 14 1013.3 5/ 7 5/ 7 $$

USA.gov is the U.S. government's official web portal to all federal, state and local government web resources and services.